Regional Weather Roundup
Issued by NWS

Home | Current Version | Previous Version | Graphics & Text | Print | Product List | Glossary On
Versions: 1 2 3 4 5 6 7 8 9 10 11 12 13 14 15 16 17 18 19 20 21 22 23 24 25 26 27 28 29 30 31 32 33 34 35 36 37 38 39 40 41 42 43 44 45 46 47 48 49 50
000
ASUS43 KLSX 131957
RWRMO

WEATHER SUMMARY FOR MISSOURI
NATIONAL WEATHER SERVICE SPRINGFIELD MO
200 PM CST WED DEC 13 2017

NOTE: "FAIR" INDICATES FEW OR NO CLOUDS BELOW 12,000 FEET WITH NO
       SIGNIFICANT WEATHER AND/OR OBSTRUCTIONS TO VISIBILITY.
       CURRENT SKY AND/OR WEATHER CONDITIONS ARE NOT AVAILABLE FOR
       CHILLICOTHE AND FARMINGTON.

MOZ001>031-035>038-043-044-053-054-132100-
...NORTHERN AND WESTERN MISSOURI...

CITY           SKY/WX    TMP DP  RH WIND       PRES   REMARKS
KANSAS CTY INT SUNNY     58  28  32 NW29G36   29.74R
LEE`S SUMMIT   SUNNY     60  29  30 NW20G37   29.73S
ST JOSEPH      SUNNY     57  29  34 NW28G40   29.75R
CHILLICOTHE      N/A     57  30  35 NW17G25   29.68R

$$
MOZ066>068-077>081-088>096-101>105-132100-
...SOUTHWEST MISSOURI...

CITY           SKY/WX    TMP DP  RH WIND       PRES   REMARKS
SPRINGFIELD    SUNNY     58  25  28 NW14G25   29.76F
JOPLIN         SUNNY     58  27  30 W13G22    29.80F
BRANSON        PTSUNNY   55  25  30 NW7G18    29.79F

$$
MOZ032>034-039>042-045>050-055>058-069>072-132100-
...CENTRAL MISSOURI...

CITY           SKY/WX    TMP DP  RH WIND       PRES   REMARKS
COLUMBIA       NOT AVBL
JEFFERSON CITY SUNNY     60  30  32 NW25G46   29.63S
WARRENSBURG    SUNNY     59  28  31 NW24G33   29.70S

$$
MOZ051-052-059>065-132100-
...EAST CENTRAL MISSOURI...

CITY           SKY/WX    TMP DP  RH WIND       PRES   REMARKS
ST LOUIS INTL  MOSUNNY   57  29  34 W35G45    29.56S

$$
MOZ072>076-082>087-097>100-106>115-132100-
...SOUTH CENTRAL AND SOUTHEAST MISSOURI...

CITY           SKY/WX    TMP DP  RH WIND       PRES   REMARKS
CAPE GIRARDEAU MOSUNNY   49  23  36 SW20G26   29.66F
POPLAR BLUFF   MOSUNNY   52  25  35 SW12      29.69F
WEST PLAINS    CLOUDY    59  25  27 W12G23    29.71F

$$


USA.gov is the U.S. government's official web portal to all federal, state and local government web resources and services.